Hourly Data Report for October 03, 2013

All times are specified in Local Standard Time (LST). Add 1 hour to adjust for Daylight Saving Time where and when it is observed.

IQALUIT CLIMATE
NUNAVUT

63°44'50.000" N
68°32'40.000" W
33.50 m
2402592
71321
XFB

Download Data

Hourly Data (October 2013)
Hourly Data Report for October 3, 2013
Temp Definition
°C
Dew Point Temp Definition
°C
Rel Hum Definition
%
Wind Dir Definition
10's deg

Wind Spd Definition
km/h
Visibility Definition
km
Stn Press Definition
kPa
Hmdx Definition


Wind Chill Definition


Weather Definition


TIME
00:00 2.0 1.7 98 10 9   100.08     LegendNANA
01:00 2.0 1.7 98 12 11   100.10     LegendNANA
02:00 2.0 1.9 99 12 9   100.12     LegendNANA
03:00 2.0 1.9 99 12 9   100.15     LegendNANA
04:00 2.3 1.9 97 12 13   100.18     LegendNANA
05:00 2.1 1.8 98 11 9   100.22     LegendNANA
06:00 2.0 1.8 99 12 11   100.26     LegendNANA
07:00 1.9 1.9 100 12 7   100.33     LegendNANA
08:00 2.2 2.0 99 12 11   100.39     LegendNANA
09:00 2.2 2.0 99 12 7   100.44     LegendNANA
10:00 2.3 2.0 98 13 7   100.48     LegendNANA
11:00 2.5 2.2 98 14 9   100.52     LegendNANA
12:00 2.4 1.8 96 16 9   100.57     LegendNANA
13:00 2.1 1.6 96 15 11   100.63     LegendNANA
14:00 2.3 1.7 96 16 9   100.69     LegendNANA
15:00 1.9 1.5 97 15 9   100.77     LegendNANA
16:00 2.0 1.2 94 14 11   100.84     LegendNANA
17:00 2.1 1.5 96 13 9   100.90     LegendNANA
18:00 2.3 1.5 94 12 13   100.97     LegendNANA
19:00 2.2 1.5 95 11 13   101.02     LegendNANA
20:00 2.0 1.1 94 12 13   101.07     LegendNANA
21:00 1.9 1.2 95 12 11   101.11     LegendNANA
22:00 1.9 1.0 94 12 13   101.13     LegendNANA
23:00 1.8 0.9 94 12 15   101.16     LegendNANA

Notes on Data Quality.

Legend

  • E = Estimated
  • M = Missing
  • NA = Not Available
  • ‡ = Partner data that is not subject to review by the National Climate Archives
Date modified: